Home   Weather   Letterkenny   Past weeks

Flag for Ireland Past Weather in Letterkenny, Ireland — Yesterday and Last 2 Weeks

Now
50 °F

Cool.


Feels Like: 45 °F
Forecast: 42 / 49 °F
Wind: 14 mph from South

Location: Castlederg

Current Time: Jan 24, 2017 at 1:24:45 pm

Latest Report: Jan 24, 2017 at 12:00 pm


Visibility: 25 mi

Pressure: 30.06 "Hg

Humidity: 92%

Dew Point: 48 °F

Location of LetterkennyLocation

Past Weather in Letterkenny — Graph

°F

Letterkenny Temperature Yesterday

Maximum temperature yesterday: 46 °F (at 3:00 pm)
Minimum temperature yesterday: 21 °F (at 6:00 am)
Average temperature yesterday: 35 °F

High & Low Weather Summary for the Past Weeks

 TemperatureHumidityPressure
High52 °F (Jan 15, 2:00 pm)98% (Jan 20, 3:00 am)30.63 "Hg (Jan 20, 3:00 am)
Low21 °F (Jan 23, 6:00 am)63% (Jan 11, 2:00 pm)29.44 "Hg (Jan 12, 5:00 pm)
Average42 °F88%30.19 "Hg
* Reported Jan 9 12:00 pm — Jan 24 12:00 pm, Letterkenny, Weather by CustomWeather, © 2017

Note: Actual official high and low records may vary slightly from our data, if they occured in-between our weather recording intervals... More about our weather records

Advertising

Letterkenny Weather History for the Previous 24 Hours

Scroll right to see more
 ConditionsComfort  
Time TempWeatherWind HumidityBarometerVisibility
12:00 pm
Tue, Jan 24
50 °FCool.14 mph92%30.06 "Hg25 mi
11:00 am49 °FCool.12 mph89%30.06 "Hg31 mi
10:00 am49 °FCool.7 mph91%30.07 "Hg31 mi
9:00 am48 °FCool.8 mph92%30.05 "Hg31 mi
8:00 am47 °FCool.6 mph94%30.04 "Hg31 mi
7:00 am47 °FCool.10 mph94%30.05 "Hg11 mi
6:00 am47 °FCool.12 mph93%30.03 "Hg28 mi
5:00 am47 °FCool.13 mph92%30.02 "Hg25 mi
4:00 am46 °FDrizzle. Overcast.9 mph94%30.03 "Hg7 mi
3:00 am45 °FRain showers. Overcast.15 mph93%30.02 "Hg3 mi
2:00 am45 °FLight rain. Overcast.10 mph91%30.04 "Hg9 mi
1:00 am44 °FLight freezing rain. Overcast.10 mph92%30.05 "Hg9 mi
12:00 am44 °FLight rain. Overcast.9 mph88%30.06 "Hg11 mi
11:00 pm
Mon, Jan 23
44 °FRain showers. Overcast.5 mph85%30.07 "Hg15 mi
10:00 pm44 °FQuite cool.13 mph83%30.07 "Hg17 mi
9:00 pm43 °FQuite cool.13 mph84%30.07 "Hg19 mi
8:00 pm43 °FQuite cool.15 mph83%30.08 "Hg19 mi
7:00 pm43 °FQuite cool.10 mph81%30.10 "Hg19 mi
6:00 pm43 °FQuite cool.7 mph89%30.11 "Hg19 mi
5:00 pm45 °FQuite cool.9 mph87%30.11 "Hg19 mi
4:00 pm45 °FQuite cool.8 mph85%30.13 "Hg19 mi
3:00 pm46 °FCool.12 mph84%30.14 "Hg19 mi
2:00 pm45 °FCool.9 mph84%30.16 "Hg17 mi
1:00 pm42 °FQuite cool.7 mph94%30.19 "Hg7 mi
Weather by CustomWeather, © 2017

See weather overviewHow to use our weather pages